Year,Month,Day,Hour,Minute,Value (Times are PST for temperature in C)
2016,11,08,00,00,12.80
2016,11,08,00,01,12.80
2016,11,08,00,02,12.80
2016,11,08,00,03,12.80
2016,11,08,00,04,12.80
2016,11,08,00,05,12.80
2016,11,08,00,06,12.80
2016,11,08,00,07,12.70
2016,11,08,00,08,12.70
2016,11,08,00,09,12.70
2016,11,08,00,10,12.70
2016,11,08,00,11,12.70
2016,11,08,00,12,12.70
2016,11,08,00,13,12.70
2016,11,08,00,14,12.70
2016,11,08,00,15,12.60
2016,11,08,00,16,12.60
2016,11,08,00,17,12.60
2016,11,08,00,18,12.60
2016,11,08,00,19,12.60
2016,11,08,00,20,12.60
2016,11,08,00,21,12.60
2016,11,08,00,22,12.60
2016,11,08,00,23,12.50
2016,11,08,00,24,12.50
2016,11,08,00,25,12.50
2016,11,08,00,26,12.50
2016,11,08,00,27,12.50
2016,11,08,00,28,12.50
2016,11,08,00,29,12.50
2016,11,08,00,30,12.50
2016,11,08,00,31,12.50
2016,11,08,00,32,12.50
2016,11,08,00,33,12.50
2016,11,08,00,34,12.40
2016,11,08,00,35,12.40
2016,11,08,00,36,12.40
2016,11,08,00,37,12.40
2016,11,08,00,38,12.40
2016,11,08,00,39,12.40
2016,11,08,00,40,12.40
2016,11,08,00,41,12.30
2016,11,08,00,42,12.30
2016,11,08,00,43,12.30
2016,11,08,00,44,12.30
2016,11,08,00,45,12.30
2016,11,08,00,46,12.30
2016,11,08,00,47,12.30
2016,11,08,00,48,12.30
2016,11,08,00,49,12.20
2016,11,08,00,50,12.20
2016,11,08,00,51,12.20
2016,11,08,00,52,12.20
2016,11,08,00,53,12.20
2016,11,08,00,54,12.20
2016,11,08,00,55,12.20
2016,11,08,00,56,12.20
2016,11,08,00,57,12.20
2016,11,08,00,58,12.20
2016,11,08,00,59,12.20
2016,11,08,01,00,12.20
2016,11,08,01,01,12.20
2016,11,08,01,02,12.20
2016,11,08,01,03,12.20
2016,11,08,01,04,12.10
2016,11,08,01,05,12.10
2016,11,08,01,06,12.10
2016,11,08,01,07,12.10
2016,11,08,01,08,12.00
2016,11,08,01,09,12.00
2016,11,08,01,10,12.00
2016,11,08,01,11,11.90
2016,11,08,01,12,11.90
2016,11,08,01,13,11.90
2016,11,08,01,14,11.90
2016,11,08,01,15,11.90
2016,11,08,01,16,11.90
2016,11,08,01,17,11.90
2016,11,08,01,18,12.00
2016,11,08,01,19,12.00
2016,11,08,01,20,12.00
2016,11,08,01,21,12.10
2016,11,08,01,22,12.10
2016,11,08,01,23,12.20
2016,11,08,01,24,12.20
2016,11,08,01,25,12.30
2016,11,08,01,26,12.30
2016,11,08,01,27,12.40
2016,11,08,01,28,12.40
2016,11,08,01,29,12.40
2016,11,08,01,30,12.40
2016,11,08,01,31,12.50
2016,11,08,01,32,12.50
2016,11,08,01,33,12.50
2016,11,08,01,34,12.60
2016,11,08,01,35,12.60
2016,11,08,01,36,12.60
2016,11,08,01,37,12.60
2016,11,08,01,38,12.70
2016,11,08,01,39,12.70
2016,11,08,01,40,12.70
2016,11,08,01,41,12.70
2016,11,08,01,42,12.80
2016,11,08,01,43,12.80
2016,11,08,01,44,12.80
2016,11,08,01,45,12.80
2016,11,08,01,46,12.80
2016,11,08,01,47,12.90
2016,11,08,01,48,12.90
2016,11,08,01,49,12.90
2016,11,08,01,50,12.90
2016,11,08,01,51,13.00
2016,11,08,01,52,13.00
2016,11,08,01,53,13.10
2016,11,08,01,54,13.10
2016,11,08,01,55,13.10
2016,11,08,01,56,13.10
2016,11,08,01,57,13.10
2016,11,08,01,58,13.20
2016,11,08,01,59,13.20
2016,11,08,02,00,13.20
2016,11,08,02,01,13.20
2016,11,08,02,02,13.20
2016,11,08,02,03,13.30
2016,11,08,02,04,13.30
2016,11,08,02,05,13.30
2016,11,08,02,06,13.30
2016,11,08,02,07,13.30
2016,11,08,02,08,13.30
2016,11,08,02,09,13.30
2016,11,08,02,10,13.30
2016,11,08,02,11,13.30
2016,11,08,02,12,13.30
2016,11,08,02,13,13.30
2016,11,08,02,14,13.30
2016,11,08,02,15,13.30
2016,11,08,02,16,13.40
2016,11,08,02,17,13.30
2016,11,08,02,18,13.30
2016,11,08,02,19,13.30
2016,11,08,02,20,13.30
2016,11,08,02,21,13.20
2016,11,08,02,22,13.20
2016,11,08,02,23,13.20
2016,11,08,02,24,13.10
2016,11,08,02,25,13.10
2016,11,08,02,26,13.10
2016,11,08,02,27,13.10
2016,11,08,02,28,13.00
2016,11,08,02,29,13.00
2016,11,08,02,30,13.00
2016,11,08,02,31,12.90
2016,11,08,02,32,12.90
2016,11,08,02,33,12.90
2016,11,08,02,34,12.90
2016,11,08,02,35,12.90
2016,11,08,02,36,12.80
2016,11,08,02,37,12.80
2016,11,08,02,38,12.80
2016,11,08,02,39,12.80
2016,11,08,02,40,12.80
2016,11,08,02,41,12.80
2016,11,08,02,42,12.70
2016,11,08,02,43,12.70
2016,11,08,02,44,12.70
2016,11,08,02,45,12.70
2016,11,08,02,46,12.70
2016,11,08,02,47,12.70
2016,11,08,02,48,12.70
2016,11,08,02,49,12.60
2016,11,08,02,50,12.60
2016,11,08,02,51,12.60
2016,11,08,02,52,12.60
2016,11,08,02,53,12.60
2016,11,08,02,54,12.60
2016,11,08,02,55,12.60
2016,11,08,02,56,12.60
2016,11,08,02,57,12.60
2016,11,08,02,58,12.70
2016,11,08,02,59,12.60
2016,11,08,03,00,12.70
2016,11,08,03,01,12.70
2016,11,08,03,02,12.70
2016,11,08,03,03,12.70
2016,11,08,03,04,12.70
2016,11,08,03,05,12.80
2016,11,08,03,06,12.80
2016,11,08,03,07,12.80
2016,11,08,03,08,12.90
2016,11,08,03,09,12.90
2016,11,08,03,10,12.90
2016,11,08,03,11,13.00
2016,11,08,03,12,13.00
2016,11,08,03,13,13.00
2016,11,08,03,14,13.10
2016,11,08,03,15,13.10
2016,11,08,03,16,13.20
2016,11,08,03,17,13.20
2016,11,08,03,18,13.20
2016,11,08,03,19,13.20
2016,11,08,03,20,13.20
2016,11,08,03,21,13.20
2016,11,08,03,22,13.20
2016,11,08,03,23,13.20
2016,11,08,03,24,13.20
2016,11,08,03,25,13.20
2016,11,08,03,26,13.20
2016,11,08,03,27,13.10
2016,11,08,03,28,13.10
2016,11,08,03,29,13.10
2016,11,08,03,30,13.10
2016,11,08,03,31,13.10
2016,11,08,03,32,13.10
2016,11,08,03,33,13.10
2016,11,08,03,34,13.10
2016,11,08,03,35,13.10
2016,11,08,03,36,13.00
2016,11,08,03,37,13.00
2016,11,08,03,38,13.00
2016,11,08,03,39,13.00
2016,11,08,03,40,13.00
2016,11,08,03,41,12.90
2016,11,08,03,42,12.90
2016,11,08,03,43,12.90
2016,11,08,03,44,12.90
2016,11,08,03,45,12.90
2016,11,08,03,46,12.90
2016,11,08,03,47,12.90
2016,11,08,03,48,12.90
2016,11,08,03,49,12.90
2016,11,08,03,50,12.90
2016,11,08,03,51,12.90
2016,11,08,03,52,12.90
2016,11,08,03,53,12.90
2016,11,08,03,54,12.90
2016,11,08,03,55,12.90
2016,11,08,03,56,12.90
2016,11,08,03,57,12.90
2016,11,08,03,58,12.90
2016,11,08,03,59,12.90
2016,11,08,04,00,12.90
2016,11,08,04,01,12.90
2016,11,08,04,02,13.00
2016,11,08,04,03,13.00
2016,11,08,04,04,13.00
2016,11,08,04,05,13.00
2016,11,08,04,06,13.00
2016,11,08,04,07,13.00
2016,11,08,04,08,13.00
2016,11,08,04,09,13.00
2016,11,08,04,10,13.10
2016,11,08,04,11,13.10
2016,11,08,04,12,13.10
2016,11,08,04,13,13.10
2016,11,08,04,14,13.10
2016,11,08,04,15,13.10
2016,11,08,04,16,13.10
2016,11,08,04,17,13.10
2016,11,08,04,18,13.10
2016,11,08,04,19,13.10
2016,11,08,04,20,13.10
2016,11,08,04,21,13.10
2016,11,08,04,22,13.10
2016,11,08,04,23,13.10
2016,11,08,04,24,13.20
2016,11,08,04,25,13.20
2016,11,08,04,26,13.20
2016,11,08,04,27,13.20
2016,11,08,04,28,13.20
2016,11,08,04,29,13.30
2016,11,08,04,30,13.30
2016,11,08,04,31,13.30
2016,11,08,04,32,13.30
2016,11,08,04,33,13.30
2016,11,08,04,34,13.30
2016,11,08,04,35,13.30
2016,11,08,04,36,13.30
2016,11,08,04,37,13.30
2016,11,08,04,38,13.30
2016,11,08,04,39,13.30
2016,11,08,04,40,13.30
2016,11,08,04,41,13.30
2016,11,08,07,47,13.10
2016,11,08,07,48,13.10
2016,11,08,07,49,13.10
2016,11,08,07,50,13.10
2016,11,08,07,51,13.10
2016,11,08,07,52,13.10
2016,11,08,07,53,13.10
2016,11,08,07,54,13.20
2016,11,08,07,55,13.20
2016,11,08,07,56,13.20
2016,11,08,07,57,13.20
2016,11,08,07,58,13.20
2016,11,08,07,59,13.20
2016,11,08,08,00,13.20
2016,11,08,08,01,13.20
2016,11,08,08,02,13.20
2016,11,08,08,03,13.20
2016,11,08,08,04,13.20
2016,11,08,08,05,13.20
2016,11,08,08,06,13.30
2016,11,08,08,07,13.30
2016,11,08,08,08,13.30
2016,11,08,08,09,13.30
2016,11,08,08,10,13.30
2016,11,08,08,11,13.30
2016,11,08,08,12,13.40
2016,11,08,08,13,13.40
2016,11,08,08,14,13.40
2016,11,08,08,15,13.40
2016,11,08,08,16,13.50
2016,11,08,08,17,13.50
2016,11,08,08,18,13.50
2016,11,08,08,19,13.50
2016,11,08,08,20,13.60
2016,11,08,08,21,13.60
2016,11,08,08,22,13.60
2016,11,08,08,23,13.60
2016,11,08,08,24,13.70
2016,11,08,08,25,13.70
2016,11,08,08,26,13.70
2016,11,08,08,27,13.70
2016,11,08,08,28,13.70
2016,11,08,08,29,13.70
2016,11,08,08,30,13.70
2016,11,08,08,31,13.70
2016,11,08,08,32,13.70
2016,11,08,08,33,13.70
2016,11,08,08,34,13.70
2016,11,08,08,35,13.80
2016,11,08,08,36,13.80
2016,11,08,08,37,13.80
2016,11,08,08,38,13.80
2016,11,08,08,39,13.90
2016,11,08,08,40,13.90
2016,11,08,08,41,13.90
2016,11,08,08,42,14.00
2016,11,08,08,43,14.00
2016,11,08,08,44,14.00
2016,11,08,08,45,14.00
2016,11,08,08,46,14.00
2016,11,08,08,47,14.00
2016,11,08,08,48,14.00
2016,11,08,08,49,14.10
2016,11,08,08,50,14.00
2016,11,08,08,51,14.10
2016,11,08,08,52,14.10
2016,11,08,08,53,14.10
2016,11,08,08,54,14.10
2016,11,08,08,55,14.10
2016,11,08,08,56,14.00
2016,11,08,08,57,14.00
2016,11,08,08,58,14.00
2016,11,08,08,59,13.90
2016,11,08,09,00,13.90
2016,11,08,09,01,13.90
2016,11,08,09,02,13.90
2016,11,08,09,03,14.00
2016,11,08,09,04,14.00
2016,11,08,09,05,14.00
2016,11,08,09,06,14.10
2016,11,08,09,07,14.10
2016,11,08,09,08,14.10
2016,11,08,09,09,14.10
2016,11,08,09,10,14.10
2016,11,08,09,11,14.20
2016,11,08,09,12,14.20
2016,11,08,09,13,14.20
2016,11,08,09,14,14.20
2016,11,08,09,15,14.20
2016,11,08,09,16,14.30
2016,11,08,09,17,14.30
2016,11,08,09,18,14.30
2016,11,08,09,19,14.30
2016,11,08,09,20,14.30
2016,11,08,09,21,14.30
2016,11,08,09,22,14.30
2016,11,08,09,23,14.40
2016,11,08,09,24,14.40
2016,11,08,09,25,14.40
2016,11,08,09,26,14.50
2016,11,08,09,27,14.50
2016,11,08,09,28,14.60
2016,11,08,09,29,14.60
2016,11,08,09,30,14.60
2016,11,08,09,31,14.60
2016,11,08,09,32,14.70
2016,11,08,09,33,14.70
2016,11,08,09,34,14.70
2016,11,08,09,35,14.70
2016,11,08,09,36,14.70
2016,11,08,09,37,14.70
2016,11,08,09,38,14.70
2016,11,08,09,39,14.70
2016,11,08,09,40,14.70
2016,11,08,09,41,14.70
2016,11,08,09,42,14.70
2016,11,08,09,43,14.80
2016,11,08,09,44,14.80
2016,11,08,09,45,14.80
2016,11,08,09,46,14.90
2016,11,08,09,47,14.90
2016,11,08,09,48,14.90
2016,11,08,09,49,14.90
2016,11,08,09,50,14.90
2016,11,08,09,51,14.90
2016,11,08,09,52,14.80
2016,11,08,09,53,14.80
2016,11,08,09,54,14.80
2016,11,08,09,55,14.80
2016,11,08,09,56,14.80
2016,11,08,09,57,14.80
2016,11,08,09,58,14.80
2016,11,08,09,59,14.80
2016,11,08,10,00,14.80
2016,11,08,10,01,14.70
2016,11,08,10,02,14.70
2016,11,08,10,03,14.70
2016,11,08,10,04,14.70
2016,11,08,10,05,14.70
2016,11,08,10,06,14.70
2016,11,08,10,07,14.70
2016,11,08,10,08,14.70
2016,11,08,10,09,14.70
2016,11,08,10,10,14.70
2016,11,08,10,11,14.70
2016,11,08,10,12,14.70
2016,11,08,10,13,14.70
2016,11,08,10,14,14.80
2016,11,08,10,15,14.80
2016,11,08,10,16,14.90
2016,11,08,10,17,15.00
2016,11,08,10,18,15.00
2016,11,08,10,19,15.00
2016,11,08,10,20,15.00
2016,11,08,10,21,15.00
2016,11,08,10,22,15.00
2016,11,08,10,23,15.00
2016,11,08,10,24,15.10
2016,11,08,10,25,15.10
2016,11,08,10,26,15.10
2016,11,08,10,27,15.00
2016,11,08,10,28,15.00
2016,11,08,10,29,15.00
2016,11,08,10,30,15.00
2016,11,08,10,31,15.00
2016,11,08,10,32,15.00
2016,11,08,10,33,14.90
2016,11,08,10,34,14.80
2016,11,08,10,35,14.70
2016,11,08,10,36,14.60
2016,11,08,10,37,14.60
2016,11,08,10,38,14.50
2016,11,08,10,39,14.40
2016,11,08,10,40,14.40
2016,11,08,10,41,14.30
2016,11,08,10,42,14.30
2016,11,08,10,43,14.30
2016,11,08,10,44,14.30
2016,11,08,10,45,14.30
2016,11,08,10,46,14.30
2016,11,08,10,47,14.30
2016,11,08,10,48,14.20
2016,11,08,10,49,14.20
2016,11,08,10,50,14.20
2016,11,08,10,51,14.20
2016,11,08,10,52,14.20
2016,11,08,10,53,14.20
2016,11,08,10,54,14.20
2016,11,08,10,55,14.20
2016,11,08,10,56,14.20
2016,11,08,10,57,14.10
2016,11,08,10,58,14.10
2016,11,08,10,59,14.00
2016,11,08,11,00,13.90
2016,11,08,11,01,13.90
2016,11,08,11,02,13.80
2016,11,08,11,03,13.80
2016,11,08,11,04,13.80
2016,11,08,11,05,13.80
2016,11,08,11,06,13.70
2016,11,08,11,07,13.80
2016,11,08,11,08,13.80
2016,11,08,11,09,13.80
2016,11,08,11,10,13.80
2016,11,08,11,11,13.80
2016,11,08,11,12,13.80
2016,11,08,11,13,13.90
2016,11,08,11,14,14.00
2016,11,08,11,15,14.00
2016,11,08,11,16,14.10
2016,11,08,11,17,14.20
2016,11,08,11,18,14.30
2016,11,08,11,19,14.40
2016,11,08,11,20,14.50
2016,11,08,11,21,14.70
2016,11,08,11,22,14.90
2016,11,08,11,23,15.00
2016,11,08,11,24,15.00
2016,11,08,11,25,15.00
2016,11,08,11,26,15.00
2016,11,08,11,27,15.00
2016,11,08,11,28,15.00
2016,11,08,11,29,15.00
2016,11,08,11,30,15.00
2016,11,08,11,31,15.00
2016,11,08,11,32,15.10
2016,11,08,11,33,15.20
2016,11,08,11,34,15.30
2016,11,08,11,35,15.30
2016,11,08,11,36,15.40
2016,11,08,11,37,15.40
2016,11,08,11,38,15.50
2016,11,08,11,39,15.60
2016,11,08,11,40,15.70
2016,11,08,11,41,15.70
2016,11,08,11,42,15.80
2016,11,08,11,43,16.00
2016,11,08,11,44,16.10
2016,11,08,11,45,16.20
2016,11,08,11,46,16.30
2016,11,08,11,47,16.30
2016,11,08,11,48,16.40
2016,11,08,11,49,16.50
2016,11,08,11,50,16.50
2016,11,08,11,51,16.60
2016,11,08,11,52,16.70
2016,11,08,11,53,16.70
2016,11,08,11,54,16.70
2016,11,08,11,55,16.80
2016,11,08,11,56,16.80
2016,11,08,11,57,16.80
2016,11,08,11,58,16.80
2016,11,08,11,59,16.90
2016,11,08,12,00,16.90
2016,11,08,12,01,17.00
2016,11,08,12,02,17.10
2016,11,08,12,03,17.10
2016,11,08,12,04,17.20
2016,11,08,12,05,17.30
2016,11,08,12,06,17.30
2016,11,08,12,07,17.20
2016,11,08,12,08,17.30
2016,11,08,12,09,17.30
2016,11,08,12,10,17.30
2016,11,08,12,11,17.30
2016,11,08,12,12,17.30
2016,11,08,12,13,17.30
2016,11,08,12,14,17.40
2016,11,08,12,15,17.50
2016,11,08,12,16,17.50
2016,11,08,12,17,17.60
2016,11,08,12,18,17.60
2016,11,08,12,19,17.60
2016,11,08,12,20,17.70
2016,11,08,12,21,17.70
2016,11,08,12,22,17.70
2016,11,08,12,23,17.80
2016,11,08,12,24,17.80
2016,11,08,12,25,17.80
2016,11,08,12,26,17.80
2016,11,08,12,27,17.80
2016,11,08,12,28,17.90
2016,11,08,12,29,17.90
2016,11,08,12,30,17.90
2016,11,08,12,31,17.90
2016,11,08,12,32,17.90
2016,11,08,12,33,17.90
2016,11,08,12,34,17.90
2016,11,08,12,35,17.80
2016,11,08,12,36,17.80
2016,11,08,12,37,17.70
2016,11,08,12,38,17.70
2016,11,08,12,39,17.60
2016,11,08,12,40,17.50
2016,11,08,12,41,17.50
2016,11,08,12,42,17.50
2016,11,08,12,43,17.50
2016,11,08,12,44,17.50
2016,11,08,12,45,17.60
2016,11,08,12,46,17.60
2016,11,08,12,47,17.60
2016,11,08,12,48,17.60
2016,11,08,12,49,17.50
2016,11,08,12,50,17.50
2016,11,08,12,51,17.50
2016,11,08,12,52,17.40
2016,11,08,12,53,17.40
2016,11,08,12,54,17.40
2016,11,08,12,55,17.50
2016,11,08,12,56,17.50
2016,11,08,12,57,17.60
2016,11,08,12,58,17.60
2016,11,08,12,59,17.60
2016,11,08,13,00,17.60
2016,11,08,13,01,17.50
2016,11,08,13,02,17.50
2016,11,08,13,03,17.40
2016,11,08,13,04,17.40
2016,11,08,13,05,17.40
2016,11,08,13,06,17.30
2016,11,08,13,07,17.30
2016,11,08,13,08,17.30
2016,11,08,13,09,17.30
2016,11,08,13,10,17.40
2016,11,08,13,11,17.40
2016,11,08,13,12,17.40
2016,11,08,13,13,17.30
2016,11,08,13,14,17.40
2016,11,08,13,15,17.40
2016,11,08,13,16,17.40
2016,11,08,13,17,17.40
2016,11,08,13,18,17.50
2016,11,08,13,19,17.50
2016,11,08,13,20,17.50
2016,11,08,13,21,17.40
2016,11,08,13,22,17.40
2016,11,08,13,23,17.30
2016,11,08,13,24,17.30
2016,11,08,13,25,17.20
2016,11,08,13,26,17.20
2016,11,08,13,27,17.20
2016,11,08,13,28,17.20
2016,11,08,13,29,17.20
2016,11,08,13,30,17.20
2016,11,08,13,31,17.10
2016,11,08,13,32,17.10
2016,11,08,13,33,17.00
2016,11,08,13,34,17.00
2016,11,08,13,35,16.90
2016,11,08,13,36,16.90
2016,11,08,13,37,16.90
2016,11,08,13,38,16.80
2016,11,08,13,39,16.80
2016,11,08,13,40,16.80
2016,11,08,13,41,16.80
2016,11,08,13,42,16.80
2016,11,08,13,43,16.80
2016,11,08,13,44,16.80
2016,11,08,13,45,16.80
2016,11,08,13,46,16.80
2016,11,08,13,47,16.80
2016,11,08,13,48,16.70
2016,11,08,13,49,16.70
2016,11,08,13,50,16.60
2016,11,08,13,51,16.60
2016,11,08,13,52,16.60
2016,11,08,13,53,16.60
2016,11,08,13,54,16.60
2016,11,08,13,55,16.60
2016,11,08,13,56,16.50
2016,11,08,13,57,16.40
2016,11,08,13,58,16.40
2016,11,08,13,59,16.40
2016,11,08,14,00,16.40
2016,11,08,14,01,16.40
2016,11,08,14,02,16.40
2016,11,08,14,03,16.30
2016,11,08,14,04,16.30
2016,11,08,14,05,16.30
2016,11,08,14,06,16.30
2016,11,08,14,07,16.30
2016,11,08,14,08,16.30
2016,11,08,14,09,16.40
2016,11,08,14,10,16.40
2016,11,08,14,11,16.30
2016,11,08,14,12,16.30
2016,11,08,14,13,16.30
2016,11,08,14,14,16.40
2016,11,08,14,15,16.40
2016,11,08,14,16,16.40
2016,11,08,14,17,16.50
2016,11,08,14,18,16.50
2016,11,08,14,19,16.60
2016,11,08,14,20,16.60
2016,11,08,14,21,16.60
2016,11,08,14,22,16.70
2016,11,08,14,23,16.70
2016,11,08,14,24,16.70
2016,11,08,14,25,16.70
2016,11,08,14,26,16.70
2016,11,08,14,27,16.70
2016,11,08,14,28,16.70
2016,11,08,14,29,16.80
2016,11,08,14,30,16.70
2016,11,08,14,31,16.70
2016,11,08,14,32,16.70
2016,11,08,14,33,16.70
2016,11,08,14,34,16.70
2016,11,08,14,35,16.70
2016,11,08,14,36,16.70
2016,11,08,14,37,16.80
2016,11,08,14,38,16.80
2016,11,08,14,39,16.80
2016,11,08,14,40,16.80
2016,11,08,14,41,16.80
2016,11,08,14,42,16.90
2016,11,08,14,43,16.90
2016,11,08,14,44,16.90
2016,11,08,14,45,16.90
2016,11,08,14,46,16.90
2016,11,08,14,47,16.90
2016,11,08,14,48,16.90
2016,11,08,14,49,16.80
2016,11,08,14,50,16.80
2016,11,08,14,51,16.80
2016,11,08,14,52,16.70
2016,11,08,14,53,16.70
2016,11,08,14,54,16.70
2016,11,08,14,55,16.60
2016,11,08,14,56,16.50
2016,11,08,14,57,16.50
2016,11,08,14,58,16.40
2016,11,08,14,59,16.30
2016,11,08,15,00,16.30
2016,11,08,15,01,16.30
2016,11,08,15,02,16.30
2016,11,08,15,03,16.20
2016,11,08,15,04,16.20
2016,11,08,15,05,16.20
2016,11,08,15,06,16.20
2016,11,08,15,07,16.20
2016,11,08,15,08,16.20
2016,11,08,15,09,16.20
2016,11,08,15,10,16.20
2016,11,08,15,11,16.20
2016,11,08,15,12,16.20
2016,11,08,15,13,16.20
2016,11,08,15,14,16.20
2016,11,08,15,15,16.20
2016,11,08,15,16,16.20
2016,11,08,15,17,16.20
2016,11,08,15,18,16.20
2016,11,08,15,19,16.20
2016,11,08,15,20,16.10
2016,11,08,15,21,16.10
2016,11,08,15,22,16.10
2016,11,08,15,23,16.10
2016,11,08,15,24,16.10
2016,11,08,15,25,16.10
2016,11,08,15,26,16.10
2016,11,08,15,27,16.20
2016,11,08,15,28,16.20
2016,11,08,15,29,16.20
2016,11,08,15,30,16.20
2016,11,08,15,31,16.20
2016,11,08,15,32,16.20
2016,11,08,15,33,16.20
2016,11,08,15,34,16.20
2016,11,08,15,35,16.20
2016,11,08,15,36,16.20
2016,11,08,15,37,16.10
2016,11,08,15,38,16.10
2016,11,08,15,39,16.00
2016,11,08,15,40,16.00
2016,11,08,15,41,15.90
2016,11,08,15,42,15.90
2016,11,08,15,43,15.90
2016,11,08,15,44,15.90
2016,11,08,15,45,15.90
2016,11,08,15,46,15.90
2016,11,08,15,47,15.80
2016,11,08,15,48,15.80
2016,11,08,15,49,15.80
2016,11,08,15,50,15.80
2016,11,08,15,51,15.80
2016,11,08,15,52,15.80
2016,11,08,15,53,15.80
2016,11,08,15,54,15.80
2016,11,08,15,55,15.80
2016,11,08,15,56,15.70
2016,11,08,15,57,15.70
2016,11,08,15,58,15.60
2016,11,08,15,59,15.60
2016,11,08,16,00,15.60
2016,11,08,16,01,15.50
2016,11,08,16,02,15.50
2016,11,08,16,03,15.50
2016,11,08,16,04,15.60
2016,11,08,16,05,15.60
2016,11,08,16,06,15.60
2016,11,08,16,07,15.60
2016,11,08,16,08,15.60
2016,11,08,16,09,15.60
2016,11,08,16,10,15.60
2016,11,08,16,11,15.60
2016,11,08,16,12,15.60
2016,11,08,16,13,15.60
2016,11,08,16,14,15.60
2016,11,08,16,15,15.50
2016,11,08,16,16,15.50
2016,11,08,16,17,15.40
2016,11,08,16,18,15.40
2016,11,08,16,19,15.30
2016,11,08,16,20,15.30
2016,11,08,16,21,15.30
2016,11,08,16,22,15.30
2016,11,08,16,23,15.30
2016,11,08,16,24,15.30
2016,11,08,16,25,15.30
2016,11,08,16,26,15.30
2016,11,08,16,27,15.30
2016,11,08,16,28,15.20
2016,11,08,16,29,15.20
2016,11,08,16,30,15.20
2016,11,08,16,31,15.10
2016,11,08,16,32,15.10
2016,11,08,16,33,15.00
2016,11,08,16,34,15.00
2016,11,08,16,35,15.00
2016,11,08,16,36,15.00
2016,11,08,16,37,15.00
2016,11,08,16,38,15.00
2016,11,08,16,39,15.00
2016,11,08,16,40,14.90
2016,11,08,16,41,14.80
2016,11,08,16,42,14.80
2016,11,08,16,43,14.80
2016,11,08,16,44,14.80
2016,11,08,16,45,14.70
2016,11,08,16,46,14.70
2016,11,08,16,47,14.70
2016,11,08,16,48,14.60
2016,11,08,16,49,14.60
2016,11,08,16,50,14.60
2016,11,08,16,51,14.50
2016,11,08,16,52,14.50
2016,11,08,16,53,14.50
2016,11,08,16,54,14.40
2016,11,08,16,55,14.40
2016,11,08,16,56,14.40
2016,11,08,16,57,14.40
2016,11,08,16,58,14.40
2016,11,08,16,59,14.40
2016,11,08,17,00,14.30
2016,11,08,17,01,14.30
2016,11,08,17,02,14.30
2016,11,08,17,03,14.30
2016,11,08,17,04,14.30
2016,11,08,17,05,14.30
2016,11,08,17,06,14.30
2016,11,08,17,07,14.30
2016,11,08,17,08,14.30
2016,11,08,17,09,14.30
2016,11,08,17,10,14.30
2016,11,08,17,11,14.30
2016,11,08,17,12,14.30
2016,11,08,17,13,14.30
2016,11,08,17,14,14.30
2016,11,08,17,15,14.40
2016,11,08,17,16,14.40
2016,11,08,17,17,14.40
2016,11,08,17,18,14.40
2016,11,08,17,19,14.40
2016,11,08,17,20,14.40
2016,11,08,17,21,14.30
2016,11,08,17,22,14.30
2016,11,08,17,23,14.30
2016,11,08,17,24,14.30
2016,11,08,17,25,14.30
2016,11,08,17,26,14.30
2016,11,08,17,27,14.30
2016,11,08,17,28,14.30
2016,11,08,17,29,14.30
2016,11,08,17,30,14.30
2016,11,08,17,31,14.30
2016,11,08,17,32,14.40
2016,11,08,17,33,14.40
2016,11,08,17,34,14.50
2016,11,08,17,35,14.60
2016,11,08,17,36,14.60
2016,11,08,17,37,14.70
2016,11,08,17,38,14.70
2016,11,08,17,39,14.80
2016,11,08,17,40,14.80
2016,11,08,17,41,14.80
2016,11,08,17,42,14.80
2016,11,08,17,43,14.80
2016,11,08,17,44,14.80
2016,11,08,17,45,14.80
2016,11,08,17,46,14.80
2016,11,08,17,47,14.80
2016,11,08,17,48,14.80
2016,11,08,17,49,14.70
2016,11,08,17,50,14.70
2016,11,08,17,51,14.80
2016,11,08,17,52,14.80
2016,11,08,17,53,14.70
2016,11,08,17,54,14.70
2016,11,08,17,55,14.70
2016,11,08,17,56,14.70
2016,11,08,17,57,14.60
2016,11,08,17,58,14.60
2016,11,08,17,59,14.60
2016,11,08,18,00,14.60
2016,11,08,18,01,14.60
2016,11,08,18,02,14.50
2016,11,08,18,03,14.50
2016,11,08,18,04,14.50
2016,11,08,18,05,14.50
2016,11,08,18,06,14.40
2016,11,08,18,07,14.40
2016,11,08,18,08,14.40
2016,11,08,18,09,14.40
2016,11,08,18,10,14.40
2016,11,08,18,11,14.40
2016,11,08,18,12,14.40
2016,11,08,18,13,14.40
2016,11,08,18,14,14.40
2016,11,08,18,15,14.40
2016,11,08,18,16,14.30
2016,11,08,18,17,14.30
2016,11,08,18,18,14.30
2016,11,08,18,19,14.30
2016,11,08,18,20,14.30
2016,11,08,18,21,14.40
2016,11,08,18,22,14.40
2016,11,08,18,23,14.40
2016,11,08,18,24,14.40
2016,11,08,18,25,14.40
2016,11,08,18,26,14.40
2016,11,08,18,27,14.40
2016,11,08,18,28,14.40
2016,11,08,18,29,14.40
2016,11,08,18,30,14.40
2016,11,08,18,31,14.40
2016,11,08,18,32,14.40
2016,11,08,18,33,14.40
2016,11,08,18,34,14.40
2016,11,08,18,35,14.40
2016,11,08,18,36,14.40
2016,11,08,18,37,14.40
2016,11,08,18,38,14.40
2016,11,08,18,39,14.40
2016,11,08,18,40,14.40
2016,11,08,18,41,14.40
2016,11,08,18,42,14.40
2016,11,08,18,43,14.40
2016,11,08,18,44,14.50
2016,11,08,18,45,14.50
2016,11,08,18,46,14.50
2016,11,08,18,47,14.50
2016,11,08,18,48,14.50
2016,11,08,18,49,14.50
2016,11,08,18,50,14.50
2016,11,08,18,51,14.50
2016,11,08,18,52,14.50
2016,11,08,18,53,14.50
2016,11,08,18,54,14.50
2016,11,08,18,55,14.50
2016,11,08,18,56,14.50
2016,11,08,18,57,14.50
2016,11,08,18,58,14.50
2016,11,08,18,59,14.50
2016,11,08,19,00,14.50
2016,11,08,19,01,14.50
2016,11,08,19,02,14.50
2016,11,08,19,03,14.50
2016,11,08,19,04,14.50
2016,11,08,19,05,14.50
2016,11,08,19,06,14.50
2016,11,08,19,07,14.50
2016,11,08,19,08,14.50
2016,11,08,19,09,14.50
2016,11,08,19,10,14.60
2016,11,08,19,11,14.60
2016,11,08,19,12,14.60
2016,11,08,19,13,14.60
2016,11,08,19,14,14.60
2016,11,08,19,15,14.70
2016,11,08,19,16,14.70
2016,11,08,19,17,14.80
2016,11,08,19,18,14.90
2016,11,08,19,19,15.00
2016,11,08,19,20,15.00
2016,11,08,19,21,15.00
2016,11,08,19,22,15.00
2016,11,08,19,23,15.00
2016,11,08,19,24,15.00
2016,11,08,19,25,15.00
2016,11,08,19,26,15.00
2016,11,08,19,27,15.00
2016,11,08,19,28,15.00
2016,11,08,19,29,15.00
2016,11,08,19,30,15.00
2016,11,08,19,31,15.00
2016,11,08,19,32,15.00
2016,11,08,19,33,15.00
2016,11,08,19,34,15.00
2016,11,08,19,35,15.00
2016,11,08,19,36,15.00
2016,11,08,19,37,15.00
2016,11,08,19,38,15.00
2016,11,08,19,39,14.90
2016,11,08,19,40,14.90
2016,11,08,19,41,14.90
2016,11,08,19,42,15.00
2016,11,08,19,43,15.00
2016,11,08,19,44,15.00
2016,11,08,19,45,15.00
2016,11,08,19,46,15.00
2016,11,08,19,47,15.00
2016,11,08,19,48,15.00
2016,11,08,19,49,15.20
2016,11,08,19,50,15.30
2016,11,08,19,51,15.30
2016,11,08,19,52,15.40
2016,11,08,19,53,15.50
2016,11,08,19,54,15.50
2016,11,08,19,55,15.60
2016,11,08,19,56,15.60
2016,11,08,19,57,15.60
2016,11,08,19,58,15.70
2016,11,08,19,59,15.70
2016,11,08,20,00,15.70
2016,11,08,20,01,15.70
2016,11,08,20,02,15.70
2016,11,08,20,03,15.70
2016,11,08,20,04,15.70
2016,11,08,20,05,15.80
2016,11,08,20,06,15.80
2016,11,08,20,07,15.80
2016,11,08,20,08,15.80
2016,11,08,20,09,15.80
2016,11,08,20,10,15.80
2016,11,08,20,11,15.80
2016,11,08,20,12,15.70
2016,11,08,20,13,15.70
2016,11,08,20,14,15.60
2016,11,08,20,15,15.60
2016,11,08,20,16,15.50
2016,11,08,20,17,15.50
2016,11,08,20,18,15.40
2016,11,08,20,19,15.40
2016,11,08,20,20,15.40
2016,11,08,20,21,15.40
2016,11,08,20,22,15.30
2016,11,08,20,23,15.30
2016,11,08,20,24,15.20